Location: Krasnoyarskiy Pitomnik
(51.1333°N, 71.6167°E)
Time: 09:12:39
(UTC+00:00)

ATLAS 2AS CENTAUR R/B - Pass Details

Date: 22 October 2021
Orbit: 958 x 1254 km, 63.7° (Epoch: 01 December)

Event Time Altitude Azimuth Distance (km) Brightness Sun altitude
Exits shadow 23:06:28 23° 318° (NW) 2,310 4.2 -26.2°
Maximum altitude 23:09:41 31° 357° (N) 1,943 4.1 -25.7°
Drops below altitude 10° 23:16:05 10° 58° (ENE) 3,032 6.0 -24.7°
Sets 23:19:05 0° 69° (ENE) 3,943 7.0 -24.3°
